This is the latest recevied weather packets stored in our database for station/object VA7IM-13. If no packets are shown the sender has not sent any weather packets the latest 1 day(s).
| Time | Temp. | Humidity | Pressure | Rain* | Wind** | Luminosity | Snow |
|---|---|---|---|---|---|---|---|
| 1778001118 | 14.44° C | - | - | 0 mm | 2.68 m/s, 90° | - | - |
| 1778000818 | 14.44° C | - | - | 0 mm | 2.68 m/s, 180° | - | - |
| 1778000228 | 14.44° C | - | - | 0 mm | 3.13 m/s, 203° | - | - |
| 1777999918 | 14.44° C | - | - | 0 mm | 3.13 m/s, 113° | - | - |
| 1777999618 | 13.89° C | - | - | 0 mm | 2.24 m/s, 113° | - | - |
| 1777999317 | 14.44° C | - | - | 0 mm | 3.58 m/s, 180° | - | - |
| 1777999019 | 15° C | - | - | 0 mm | 3.13 m/s, 90° | - | - |
| 1777998719 | 15.56° C | - | - | 0 mm | 2.68 m/s, 225° | - | - |
| 1777998118 | 15° C | - | - | 0 mm | 3.58 m/s, 270° | - | - |
| 1777997818 | 14.44° C | - | - | 0 mm | 3.13 m/s, 225° | - | - |
| 1777997518 | 15° C | - | - | 0 mm | 2.24 m/s, 180° | - | - |
| 1777997219 | 14.44° C | - | - | 0 mm | 3.58 m/s, 180° | - | - |
| 1777996619 | 15° C | - | - | 0 mm | 4.92 m/s, 180° | - | - |
| 1777996319 | 15.56° C | - | - | 0 mm | 2.24 m/s, 225° | - | - |
| 1777996019 | 15° C | - | - | 0 mm | 3.13 m/s, 135° | - | - |
| 1777995719 | 15° C | - | - | 0 mm | 2.24 m/s, 68° | - | - |
| 1777995419 | 15° C | - | - | 0 mm | 3.58 m/s, 113° | - | - |
| 1777994817 | - | - | - | 0 mm | 2.68 m/s, 113° | - | - |
| 1777994518 | 15° C | - | - | 0 mm | 3.58 m/s, 45° | - | - |
| 1777994219 | 15° C | - | - | 0 mm | 1.34 m/s, 135° | - | - |
| 1777993919 | 15° C | - | - | 0 mm | 1.79 m/s, 135° | - | - |
| 1777993617 | 15° C | - | - | 0 mm | 2.24 m/s, 45° | - | - |
| 1777993318 | 14.44° C | - | - | 0 mm | 3.13 m/s, 45° | - | - |
| 1777993018 | 14.44° C | - | - | 0 mm | 3.13 m/s, 158° | - | - |
| 1777992719 | 14.44° C | - | - | 0 mm | 2.24 m/s, 135° | - | - |
* Rain since midnight (hover to see other rain measurements)
** Current wind speed in m/s (hover to see current wind gust speed)